Baku, Azerbaijan

6:21 AM +04 on May 24, 2018 (GMT +0400)
Bina

Weather History for UBBB - February, 2018

Change the Weather History Date:

Wednesday, February 14, 2018

  Actual Average Record
Temperature  
Mean Temperature 41 °F -  
Max Temperature 45 °F - - ()
Min Temperature 37 °F - - ()
Degree Days  
Heating Degree Days 24    
Moisture  
Dew Point 37 °F    
Average Humidity 80    
Maximum Humidity 93    
Minimum Humidity 66    
Precipitation  
Precipitation 0.00 in - - ()
Sea Level Pressure  
Sea Level Pressure 30.19 in    
Wind  
Wind Speed 13 mph ()    
Max Wind Speed 21 mph    
Max Gust Speed -    
Visibility 6.2 miles    
Events      
T = Trace of Precipitation, MM = Missing Value Source: Averaged Metar Reports

Daily Weather History Graph

Daily Weather History Graph

Search for Another Location

Airport or City:

Astronomy

Feb. 14, 2018 Rise Set
Actual Time 7:34 AM +04 6:13 PM +04
Civil Twilight 7:06 AM +04 6:41 PM +04
Nautical Twilight 6:34 AM +04 7:13 PM +04
Astronomical Twilight 6:03 AM +04 7:45 PM +04
Moon 6:39 AM +04 (2/14) 4:52 PM +04 (2/14)
Length of Visible Light 11h 34m
Length of Day
10h 38m
Waning Crescent, 2% of the Moon is Illuminated
Feb 14
Waning Crescent
Feb 16
New
Feb 23
First Quarter
Mar 2
Full
Mar 9
Last Quarter

Hourly Weather History & Observations

Time (+04) Temp. Windchill Dew Point Humidity Pressure Visibility Wind Dir Wind Speed Gust Speed Precip Events Conditions
12:00 AM 42.8 °F 35.4 °F 37.4 °F 81% 30.01 in 6.2 mi North 15.0 mph - N/A   Overcast
12:30 AM 42.8 °F 35.4 °F 37.4 °F 81% 30.04 in - North 15.0 mph - N/A   Clear
1:00 AM 42 °F - 37 °F 75% 30.02 in 6 mi NNW 15.7 mph - -   Overcast
1:00 AM 42.8 °F 34.8 °F 37.4 °F 81% 30.01 in - North 17.3 mph - N/A   Clear
1:30 AM 42.8 °F 34.8 °F 37.4 °F 81% 30.01 in - NNW 17.3 mph - N/A   Clear
2:00 AM 42.8 °F 34.3 °F 37.4 °F 81% 30.01 in - North 19.6 mph - N/A   Clear
2:30 AM 42.8 °F 34.0 °F 37.4 °F 81% 30.01 in - North 20.7 mph - N/A   Clear
3:00 AM 42.8 °F 34.3 °F 39.2 °F 87% 30.01 in - North 19.6 mph - N/A   Clear
3:30 AM 42.8 °F 34.3 °F 37.4 °F 81% 30.01 in - North 19.6 mph - N/A   Clear
4:00 AM 43 °F - 37 °F 72% 30.03 in 6 mi NNW 8.9 mph - -   Overcast
4:00 AM 42.8 °F 34.5 °F 37.4 °F 81% 30.01 in - North 18.4 mph - N/A   Clear
5:00 AM 42.8 °F 34.8 °F 37.4 °F 81% 30.04 in - North 17.3 mph - N/A   Clear
5:30 AM 42.8 °F 34.8 °F 39.2 °F 87% 30.04 in 6.2 mi North 17.3 mph - N/A   Overcast
6:00 AM 42.8 °F 34.8 °F 39.2 °F 87% 30.06 in 6.2 mi North 17.3 mph - N/A   Overcast
6:30 AM 42.8 °F 34.8 °F 37.4 °F 81% 30.09 in 6.2 mi North 17.3 mph - N/A   Overcast
7:00 AM 42 °F - 37 °F 76% 30.10 in 6 mi NNW 13.4 mph - -   Overcast
7:00 AM 42.8 °F 34.8 °F 39.2 °F 87% 30.09 in 6.2 mi North 17.3 mph - N/A   Overcast
7:30 AM 42.8 °F 35.1 °F 39.2 °F 87% 30.09 in 6.2 mi North 16.1 mph - N/A   Overcast
8:00 AM 42.8 °F 35.4 °F 37.4 °F 81% 30.12 in 6.2 mi North 15.0 mph - N/A   Overcast
8:30 AM 42.8 °F 36.2 °F 37.4 °F 81% 30.15 in 6.2 mi North 12.7 mph - N/A   Overcast
9:00 AM 42.8 °F 35.1 °F 41.0 °F 93% 30.15 in 6.2 mi North 16.1 mph - N/A   Overcast
9:30 AM 42.8 °F 34.8 °F 39.2 °F 87% 30.15 in 6.2 mi North 17.3 mph - N/A   Overcast
10:00 AM 43 °F - 38 °F 74% 30.18 in 6 mi NNW 17.9 mph - -   Overcast
10:00 AM 42.8 °F 35.1 °F 39.2 °F 87% 30.18 in 6.2 mi NNW 16.1 mph - N/A   Overcast
10:30 AM 42.8 °F 34.8 °F 39.2 °F 87% 30.18 in 6.2 mi NNW 17.3 mph - N/A   Overcast
11:00 AM 42.8 °F 35.1 °F 39.2 °F 87% 30.21 in 6.2 mi North 16.1 mph - N/A   Overcast
11:30 AM 42.8 °F 34.8 °F 37.4 °F 81% 30.21 in 6.2 mi NNW 17.3 mph - N/A   Overcast
12:00 PM 44.6 °F 37.4 °F 37.4 °F 76% 30.21 in 6.2 mi NNW 16.1 mph - N/A   Overcast
12:30 PM 44.6 °F 37.4 °F 37.4 °F 76% 30.24 in 6.2 mi NNW 16.1 mph - N/A   Overcast
1:00 PM 44 °F - 37 °F 68% 30.24 in 6 mi NW 15.7 mph - -   Overcast
1:00 PM 44.6 °F 38.1 °F 37.4 °F 76% 30.24 in 6.2 mi NNW 13.8 mph - N/A   Overcast
1:30 PM 44.6 °F 37.8 °F 37.4 °F 76% 30.24 in 6.2 mi NNW 15.0 mph - N/A   Overcast
2:00 PM 44.6 °F 37.8 °F 37.4 °F 76% 30.24 in 6.2 mi NNW 15.0 mph - N/A   Overcast
2:30 PM 44.6 °F 37.8 °F 37.4 °F 76% 30.24 in 6.2 mi NNW 15.0 mph - N/A   Overcast
3:00 PM 46.4 °F 39.8 °F 37.4 °F 71% 30.24 in 6.2 mi NNW 16.1 mph - N/A   Mostly Cloudy
3:30 PM 44.6 °F 37.8 °F 37.4 °F 76% 30.24 in 6.2 mi North 15.0 mph - N/A   Overcast
4:00 PM 44 °F - 36 °F 66% 30.26 in 6 mi NNW 11.2 mph - -   Overcast
4:00 PM 44.6 °F 37.8 °F 37.4 °F 76% 30.24 in 6.2 mi NNW 15.0 mph - N/A   Overcast
4:30 PM 44.6 °F 38.4 °F 37.4 °F 76% 30.27 in 6.2 mi North 12.7 mph - N/A   Overcast
5:00 PM 42.8 °F 36.6 °F 35.6 °F 76% 30.27 in 6.2 mi NNE 11.5 mph - N/A   Mostly Cloudy
5:30 PM 42.8 °F 37.0 °F 35.6 °F 76% 30.27 in 6.2 mi NNE 10.4 mph - N/A   Mostly Cloudy
6:00 PM 42.8 °F 38.0 °F 35.6 °F 76% 30.30 in - NNE 8.1 mph - N/A   Clear
6:30 PM 41.0 °F 37.1 °F 35.6 °F 81% 30.30 in - NNE 5.8 mph - N/A   Clear
7:00 PM 40 °F - 34 °F 72% 30.33 in 6 mi Calm Calm - -   Overcast
7:00 PM 39.2 °F 37.0 °F 35.6 °F 87% 30.33 in - North 3.5 mph - N/A   Clear
7:30 PM 39.2 °F 35.9 °F 33.8 °F 81% 30.33 in - NNE 4.6 mph - N/A   Clear
8:00 PM 39.2 °F 37.0 °F 33.8 °F 81% 30.33 in - ENE 3.5 mph - N/A   Clear
8:30 PM 39.2 °F - 33.8 °F 81% 30.33 in - ESE 2.3 mph - N/A   Clear
9:00 PM 39.2 °F - 33.8 °F 81% 30.33 in - East 2.3 mph - N/A   Clear
9:30 PM 37.4 °F - 33.8 °F 87% 30.33 in - SSE 2.3 mph - N/A   Clear
10:00 PM 37 °F - 33 °F 78% 30.35 in 6 mi Calm Calm - -   Overcast
10:00 PM 37.4 °F - 35.6 °F 93% 30.36 in - ESE 2.3 mph - N/A   Clear
10:30 PM 39.2 °F - 35.6 °F 87% 30.36 in - SSE 2.3 mph - N/A   Clear
11:00 PM 39.2 °F - 33.8 °F 81% 30.33 in - SSE 2.3 mph - N/A   Clear
11:30 PM 39.2 °F 35.0 °F 35.6 °F 87% 30.33 in - SSE 5.8 mph - N/A   Clear